Location: Unspecified
(47.5840°N, 122.3000°W)
Time: 16:15:38
(UTC+00:00)

Meteor 2-3 Rocket - Pass Details

Date: 09 December 2025
Orbit: 842 x 883 km, 81.2° (Epoch: 16 January)

Event Time Altitude Azimuth Distance (km) Brightness Sun altitude
Rises 13:25:25 0° 190° (S) 3,455 6.9 -22.6°
Reaches altitude 10° 13:27:51 10° 190° (S) 2,517 6.2 -22.2°
Maximum altitude 13:33:35 88° 275° (W) 874 3.7 -21.3°
Drops below altitude 10° 13:39:18 10° 11° (N) 2,507 6.1 -20.3°
Sets 13:41:44 0° 12° (NNE) 3,442 6.9 -19.9°
